Year,Month,Day,Hour,Minute,Value (Times are PST for temperature in C)
2009,10,30,00,00,8.10
2009,10,30,00,01,8.00
2009,10,30,00,02,8.00
2009,10,30,00,03,8.00
2009,10,30,00,04,8.00
2009,10,30,00,05,8.00
2009,10,30,00,06,8.00
2009,10,30,00,07,8.00
2009,10,30,00,08,8.00
2009,10,30,00,09,8.00
2009,10,30,00,10,8.00
2009,10,30,00,11,8.00
2009,10,30,00,12,8.10
2009,10,30,00,13,8.10
2009,10,30,00,14,8.00
2009,10,30,00,15,8.10
2009,10,30,00,16,8.10
2009,10,30,00,17,8.10
2009,10,30,00,18,8.10
2009,10,30,00,19,8.10
2009,10,30,00,20,8.10
2009,10,30,00,21,8.10
2009,10,30,00,22,8.10
2009,10,30,00,23,8.10
2009,10,30,00,24,8.10
2009,10,30,00,25,8.10
2009,10,30,00,26,8.10
2009,10,30,00,27,8.10
2009,10,30,00,28,8.10
2009,10,30,00,29,8.10
2009,10,30,00,30,8.10
2009,10,30,00,31,8.10
2009,10,30,00,32,8.10
2009,10,30,00,33,8.10
2009,10,30,00,34,8.10
2009,10,30,00,35,8.10
2009,10,30,00,36,8.10
2009,10,30,00,37,8.10
2009,10,30,00,38,8.10
2009,10,30,00,39,8.10
2009,10,30,00,40,8.10
2009,10,30,00,41,8.10
2009,10,30,00,42,8.10
2009,10,30,00,43,8.10
2009,10,30,00,44,8.10
2009,10,30,00,45,8.10
2009,10,30,00,46,8.10
2009,10,30,00,47,8.10
2009,10,30,00,48,8.10
2009,10,30,00,49,8.10
2009,10,30,00,50,8.10
2009,10,30,00,51,8.10
2009,10,30,00,52,8.10
2009,10,30,00,53,8.10
2009,10,30,00,54,8.10
2009,10,30,00,55,8.10
2009,10,30,00,56,8.10
2009,10,30,00,57,8.10
2009,10,30,00,58,8.10
2009,10,30,00,59,8.10
2009,10,30,01,00,8.10
2009,10,30,01,01,8.10
2009,10,30,01,02,8.10
2009,10,30,01,03,8.10
2009,10,30,01,04,8.20
2009,10,30,01,05,8.20
2009,10,30,01,06,8.20
2009,10,30,01,07,8.20
2009,10,30,01,08,8.20
2009,10,30,01,09,8.20
2009,10,30,01,10,8.20
2009,10,30,01,11,8.20
2009,10,30,01,12,8.20
2009,10,30,01,13,8.20
2009,10,30,01,14,8.20
2009,10,30,01,15,8.20
2009,10,30,01,16,8.20
2009,10,30,01,17,8.20
2009,10,30,01,18,8.20
2009,10,30,01,19,8.20
2009,10,30,01,20,8.20
2009,10,30,01,21,8.20
2009,10,30,01,22,8.20
2009,10,30,01,23,8.20
2009,10,30,01,24,8.20
2009,10,30,01,25,8.10
2009,10,30,01,26,8.10
2009,10,30,01,27,8.10
2009,10,30,01,28,8.10
2009,10,30,01,29,8.10
2009,10,30,01,30,8.10
2009,10,30,01,31,8.10
2009,10,30,01,32,8.10
2009,10,30,01,33,8.10
2009,10,30,01,34,8.10
2009,10,30,01,35,8.10
2009,10,30,01,36,8.10
2009,10,30,01,37,8.10
2009,10,30,01,38,8.10
2009,10,30,01,39,8.10
2009,10,30,01,40,8.10
2009,10,30,01,41,8.10
2009,10,30,01,42,8.10
2009,10,30,01,43,8.10
2009,10,30,01,44,8.10
2009,10,30,01,45,8.10
2009,10,30,01,46,8.10
2009,10,30,01,47,8.10
2009,10,30,01,48,8.10
2009,10,30,01,49,8.10
2009,10,30,01,50,8.10
2009,10,30,01,51,8.10
2009,10,30,01,52,8.10
2009,10,30,01,53,8.10
2009,10,30,01,54,8.10
2009,10,30,01,55,8.10
2009,10,30,01,56,8.10
2009,10,30,01,57,8.10
2009,10,30,01,58,8.10
2009,10,30,01,59,8.10
2009,10,30,02,00,8.10
2009,10,30,02,01,8.10
2009,10,30,02,02,8.20
2009,10,30,02,03,8.20
2009,10,30,02,04,8.20
2009,10,30,02,05,8.20
2009,10,30,02,06,8.20
2009,10,30,02,07,8.30
2009,10,30,02,08,8.30
2009,10,30,02,09,8.30
2009,10,30,02,10,8.30
2009,10,30,02,11,8.40
2009,10,30,02,12,8.40
2009,10,30,02,13,8.40
2009,10,30,02,14,8.40
2009,10,30,02,15,8.40
2009,10,30,02,16,8.40
2009,10,30,02,17,8.40
2009,10,30,02,18,8.50
2009,10,30,02,19,8.50
2009,10,30,02,20,8.50
2009,10,30,02,21,8.50
2009,10,30,02,22,8.60
2009,10,30,02,23,8.60
2009,10,30,02,24,8.60
2009,10,30,02,25,8.50
2009,10,30,02,26,8.60
2009,10,30,02,27,8.60
2009,10,30,02,28,8.60
2009,10,30,02,29,8.60
2009,10,30,02,30,8.60
2009,10,30,02,31,8.60
2009,10,30,02,32,8.50
2009,10,30,02,33,8.50
2009,10,30,02,34,8.60
2009,10,30,02,35,8.60
2009,10,30,02,36,8.60
2009,10,30,02,37,8.60
2009,10,30,02,38,8.60
2009,10,30,02,39,8.60
2009,10,30,02,40,8.60
2009,10,30,02,41,8.60
2009,10,30,02,42,8.60
2009,10,30,02,43,8.70
2009,10,30,02,44,8.70
2009,10,30,02,45,8.70
2009,10,30,02,46,8.70
2009,10,30,02,47,8.70
2009,10,30,02,48,8.70
2009,10,30,02,49,8.80
2009,10,30,02,50,8.80
2009,10,30,02,51,8.80
2009,10,30,02,52,8.80
2009,10,30,02,53,8.80
2009,10,30,02,54,8.80
2009,10,30,02,55,8.80
2009,10,30,02,56,8.80
2009,10,30,02,57,8.80
2009,10,30,02,58,8.80
2009,10,30,02,59,8.80
2009,10,30,03,00,8.90
2009,10,30,03,01,8.90
2009,10,30,03,02,8.90
2009,10,30,03,03,8.80
2009,10,30,03,04,8.80
2009,10,30,03,05,8.80
2009,10,30,03,06,8.80
2009,10,30,03,07,8.80
2009,10,30,03,08,8.80
2009,10,30,03,09,8.80
2009,10,30,03,10,8.80
2009,10,30,03,11,8.80
2009,10,30,03,12,8.80
2009,10,30,03,13,8.70
2009,10,30,03,14,8.70
2009,10,30,03,15,8.70
2009,10,30,03,16,8.70
2009,10,30,03,17,8.70
2009,10,30,03,18,8.70
2009,10,30,03,19,8.70
2009,10,30,03,20,8.70
2009,10,30,03,21,8.70
2009,10,30,03,22,8.60
2009,10,30,03,23,8.60
2009,10,30,03,24,8.60
2009,10,30,03,25,8.60
2009,10,30,03,26,8.60
2009,10,30,03,27,8.60
2009,10,30,03,28,8.60
2009,10,30,03,29,8.60
2009,10,30,03,30,8.60
2009,10,30,03,31,8.60
2009,10,30,03,32,8.60
2009,10,30,03,33,8.60
2009,10,30,03,34,8.60
2009,10,30,03,35,8.50
2009,10,30,03,36,8.50
2009,10,30,03,37,8.40
2009,10,30,03,38,8.40
2009,10,30,03,39,8.40
2009,10,30,03,40,8.40
2009,10,30,03,41,8.30
2009,10,30,03,42,8.30
2009,10,30,03,43,8.30
2009,10,30,03,44,8.30
2009,10,30,03,45,8.30
2009,10,30,03,46,8.30
2009,10,30,03,47,8.30
2009,10,30,03,48,8.30
2009,10,30,03,49,8.30
2009,10,30,03,50,8.30
2009,10,30,03,51,8.30
2009,10,30,03,52,8.30
2009,10,30,03,53,8.30
2009,10,30,03,54,8.20
2009,10,30,03,55,8.20
2009,10,30,03,56,8.20
2009,10,30,03,57,8.20
2009,10,30,03,58,8.10
2009,10,30,03,59,8.10
2009,10,30,04,00,8.10
2009,10,30,04,01,8.10
2009,10,30,04,02,8.10
2009,10,30,04,03,8.10
2009,10,30,04,04,8.10
2009,10,30,04,05,8.10
2009,10,30,04,06,8.10
2009,10,30,04,07,8.10
2009,10,30,04,08,8.20
2009,10,30,04,09,8.30
2009,10,30,04,10,8.40
2009,10,30,04,11,8.50
2009,10,30,04,12,8.60
2009,10,30,04,13,8.60
2009,10,30,04,14,8.70
2009,10,30,04,15,8.70
2009,10,30,04,16,8.80
2009,10,30,04,17,8.90
2009,10,30,04,18,8.90
2009,10,30,04,19,8.90
2009,10,30,04,20,8.90
2009,10,30,04,21,9.00
2009,10,30,04,22,9.10
2009,10,30,04,23,9.10
2009,10,30,04,24,9.10
2009,10,30,04,25,9.10
2009,10,30,04,26,9.20
2009,10,30,04,27,9.30
2009,10,30,04,28,9.40
2009,10,30,04,29,9.40
2009,10,30,04,30,9.50
2009,10,30,04,31,9.50
2009,10,30,04,32,9.40
2009,10,30,04,33,9.30
2009,10,30,04,34,9.20
2009,10,30,04,35,9.20
2009,10,30,04,36,9.20
2009,10,30,04,37,9.10
2009,10,30,04,38,9.10
2009,10,30,04,39,9.10
2009,10,30,04,40,9.00
2009,10,30,04,41,9.00
2009,10,30,04,42,9.10
2009,10,30,04,43,9.20
2009,10,30,04,44,9.30
2009,10,30,04,45,9.40
2009,10,30,04,46,9.60
2009,10,30,04,47,9.60
2009,10,30,04,48,9.70
2009,10,30,04,49,9.80
2009,10,30,04,50,9.90
2009,10,30,04,51,10.00
2009,10,30,04,52,10.10
2009,10,30,04,53,10.10
2009,10,30,04,54,10.10
2009,10,30,04,55,10.10
2009,10,30,04,56,10.10
2009,10,30,04,57,10.20
2009,10,30,04,58,10.20
2009,10,30,04,59,10.30
2009,10,30,05,00,10.30
2009,10,30,05,01,10.30
2009,10,30,05,02,10.30
2009,10,30,05,03,10.30
2009,10,30,05,04,10.30
2009,10,30,05,05,10.30
2009,10,30,05,06,10.30
2009,10,30,05,07,10.30
2009,10,30,05,08,10.40
2009,10,30,05,09,10.40
2009,10,30,05,10,10.50
2009,10,30,05,11,10.50
2009,10,30,05,12,10.60
2009,10,30,05,13,10.60
2009,10,30,05,14,10.70
2009,10,30,05,15,10.70
2009,10,30,05,16,10.70
2009,10,30,05,17,10.70
2009,10,30,05,18,10.80
2009,10,30,05,19,10.80
2009,10,30,05,20,10.80
2009,10,30,05,21,10.80
2009,10,30,05,22,10.80
2009,10,30,05,23,10.80
2009,10,30,05,24,10.80
2009,10,30,05,25,10.80
2009,10,30,05,26,10.80
2009,10,30,05,27,10.80
2009,10,30,05,28,10.80
2009,10,30,05,29,10.80
2009,10,30,05,30,10.80
2009,10,30,05,31,10.80
2009,10,30,05,32,10.80
2009,10,30,05,33,10.80
2009,10,30,05,34,10.80
2009,10,30,05,35,10.80
2009,10,30,05,36,10.80
2009,10,30,05,37,10.80
2009,10,30,05,38,10.90
2009,10,30,05,39,10.90
2009,10,30,05,40,10.90
2009,10,30,05,41,10.80
2009,10,30,05,42,10.70
2009,10,30,05,43,10.70
2009,10,30,05,44,10.60
2009,10,30,05,45,10.60
2009,10,30,05,46,10.70
2009,10,30,05,47,10.70
2009,10,30,05,48,10.70
2009,10,30,05,49,10.70
2009,10,30,05,50,10.70
2009,10,30,05,51,10.70
2009,10,30,05,52,10.70
2009,10,30,05,53,10.80
2009,10,30,05,54,10.80
2009,10,30,05,55,10.80
2009,10,30,05,56,10.70
2009,10,30,05,57,10.70
2009,10,30,05,58,10.70
2009,10,30,05,59,10.70
2009,10,30,06,00,10.70
2009,10,30,06,01,10.80
2009,10,30,06,02,10.80
2009,10,30,06,03,10.70
2009,10,30,06,04,10.70
2009,10,30,06,05,10.70
2009,10,30,06,06,10.80
2009,10,30,06,07,10.70
2009,10,30,06,08,10.70
2009,10,30,06,09,10.80
2009,10,30,06,10,10.80
2009,10,30,06,11,10.90
2009,10,30,06,12,10.90
2009,10,30,06,13,10.90
2009,10,30,06,14,11.00
2009,10,30,06,15,11.10
2009,10,30,06,16,11.20
2009,10,30,06,17,11.20
2009,10,30,06,18,11.30
2009,10,30,06,19,11.20
2009,10,30,06,20,11.20
2009,10,30,06,21,11.30
2009,10,30,06,22,11.30
2009,10,30,06,23,11.20
2009,10,30,06,24,11.20
2009,10,30,06,25,11.20
2009,10,30,06,26,11.20
2009,10,30,06,27,11.20
2009,10,30,06,28,11.10
2009,10,30,06,29,11.10
2009,10,30,06,30,11.10
2009,10,30,06,31,11.20
2009,10,30,06,32,11.20
2009,10,30,06,33,11.10
2009,10,30,06,34,11.20
2009,10,30,06,35,11.20
2009,10,30,06,36,11.20
2009,10,30,06,37,11.30
2009,10,30,06,38,11.30
2009,10,30,06,39,11.30
2009,10,30,06,40,11.30
2009,10,30,06,41,11.30
2009,10,30,06,42,11.40
2009,10,30,06,43,11.40
2009,10,30,06,44,11.50
2009,10,30,06,45,11.50
2009,10,30,06,46,11.40
2009,10,30,06,47,11.40
2009,10,30,06,48,11.40
2009,10,30,06,49,11.40
2009,10,30,06,50,11.50
2009,10,30,06,51,11.50
2009,10,30,06,52,11.50
2009,10,30,06,53,11.50
2009,10,30,06,54,11.50
2009,10,30,06,55,11.40
2009,10,30,06,56,11.40
2009,10,30,06,57,11.50
2009,10,30,06,58,11.50
2009,10,30,06,59,11.50
2009,10,30,07,00,11.50
2009,10,30,07,01,11.50
2009,10,30,07,02,11.60
2009,10,30,07,03,11.60
2009,10,30,07,04,11.60
2009,10,30,07,05,11.60
2009,10,30,07,06,11.60
2009,10,30,07,07,11.60
2009,10,30,07,08,11.60
2009,10,30,07,09,11.60
2009,10,30,07,10,11.60
2009,10,30,07,11,11.60
2009,10,30,07,12,11.60
2009,10,30,07,13,11.50
2009,10,30,07,14,11.60
2009,10,30,07,15,11.60
2009,10,30,07,16,11.60
2009,10,30,07,17,11.60
2009,10,30,07,18,11.60
2009,10,30,07,19,11.60
2009,10,30,07,20,11.70
2009,10,30,07,21,11.70
2009,10,30,07,22,11.70
2009,10,30,07,23,11.70
2009,10,30,07,24,11.70
2009,10,30,07,25,11.70
2009,10,30,07,26,11.70
2009,10,30,07,27,11.70
2009,10,30,07,28,11.80
2009,10,30,07,29,11.80
2009,10,30,07,30,11.80
2009,10,30,07,31,11.80
2009,10,30,07,32,11.90
2009,10,30,07,33,11.90
2009,10,30,07,34,11.90
2009,10,30,07,35,11.90
2009,10,30,07,36,11.90
2009,10,30,07,37,11.90
2009,10,30,07,38,11.90
2009,10,30,07,39,11.90
2009,10,30,07,40,12.00
2009,10,30,07,41,12.10
2009,10,30,07,42,12.10
2009,10,30,07,43,12.10
2009,10,30,07,44,12.20
2009,10,30,07,45,12.20
2009,10,30,07,46,12.20
2009,10,30,07,47,12.20
2009,10,30,07,48,12.20
2009,10,30,07,49,12.20
2009,10,30,07,50,12.20
2009,10,30,07,51,12.20
2009,10,30,07,52,12.20
2009,10,30,07,53,12.10
2009,10,30,07,54,12.10
2009,10,30,07,55,12.10
2009,10,30,07,56,12.10
2009,10,30,07,57,12.10
2009,10,30,07,58,12.10
2009,10,30,07,59,12.10
2009,10,30,08,00,12.10
2009,10,30,08,01,12.10
2009,10,30,08,02,12.20
2009,10,30,08,03,12.20
2009,10,30,08,04,12.20
2009,10,30,08,05,12.20
2009,10,30,08,06,12.20
2009,10,30,08,07,12.20
2009,10,30,08,08,12.20
2009,10,30,08,09,12.20
2009,10,30,08,10,12.10
2009,10,30,08,11,12.10
2009,10,30,08,12,12.10
2009,10,30,08,13,12.00
2009,10,30,08,14,12.00
2009,10,30,08,15,12.00
2009,10,30,08,16,11.90
2009,10,30,08,17,11.90
2009,10,30,08,18,11.90
2009,10,30,08,19,11.90
2009,10,30,08,20,11.90
2009,10,30,08,21,11.90
2009,10,30,08,22,11.90
2009,10,30,08,23,11.90
2009,10,30,08,24,11.90
2009,10,30,08,25,11.90
2009,10,30,08,26,11.90
2009,10,30,08,27,11.90
2009,10,30,08,28,12.00
2009,10,30,08,29,12.00
2009,10,30,08,30,12.00
2009,10,30,08,31,12.00
2009,10,30,08,32,12.00
2009,10,30,08,33,12.00
2009,10,30,08,34,12.00
2009,10,30,08,35,12.00
2009,10,30,08,36,12.00
2009,10,30,08,37,12.00
2009,10,30,08,38,11.90
2009,10,30,08,39,11.90
2009,10,30,08,40,11.90
2009,10,30,08,41,11.80
2009,10,30,08,42,11.80
2009,10,30,08,43,11.80
2009,10,30,08,44,11.80
2009,10,30,08,45,11.80
2009,10,30,08,46,11.70
2009,10,30,08,47,11.70
2009,10,30,08,48,11.80
2009,10,30,08,49,11.80
2009,10,30,08,50,11.80
2009,10,30,08,51,11.80
2009,10,30,08,52,11.80
2009,10,30,08,53,11.80
2009,10,30,08,54,11.80
2009,10,30,08,55,11.80
2009,10,30,08,56,11.80
2009,10,30,08,57,11.80
2009,10,30,08,58,11.80
2009,10,30,08,59,11.80
2009,10,30,09,00,11.90
2009,10,30,09,01,11.90
2009,10,30,09,02,11.90
2009,10,30,09,03,11.90
2009,10,30,09,04,11.90
2009,10,30,09,05,11.90
2009,10,30,09,06,11.90
2009,10,30,09,07,11.90
2009,10,30,09,08,11.90
2009,10,30,09,09,12.00
2009,10,30,09,10,12.00
2009,10,30,09,11,12.00
2009,10,30,09,12,12.00
2009,10,30,09,13,12.10
2009,10,30,09,14,12.10
2009,10,30,09,15,12.00
2009,10,30,09,16,12.00
2009,10,30,09,17,12.00
2009,10,30,09,18,12.00
2009,10,30,09,19,12.10
2009,10,30,09,20,12.10
2009,10,30,09,21,12.10
2009,10,30,09,22,12.20
2009,10,30,09,23,12.20
2009,10,30,09,24,12.20
2009,10,30,09,25,12.20
2009,10,30,09,26,12.20
2009,10,30,09,27,12.20
2009,10,30,09,28,12.20
2009,10,30,09,29,12.20
2009,10,30,09,30,12.20
2009,10,30,09,31,12.30
2009,10,30,09,32,12.30
2009,10,30,09,33,12.30
2009,10,30,09,34,12.30
2009,10,30,09,35,12.30
2009,10,30,09,36,12.30
2009,10,30,09,37,12.30
2009,10,30,09,38,12.30
2009,10,30,09,39,12.30
2009,10,30,09,40,12.30
2009,10,30,09,41,12.30
2009,10,30,09,42,12.30
2009,10,30,09,43,12.30
2009,10,30,09,44,12.30
2009,10,30,09,45,12.30
2009,10,30,09,46,12.30
2009,10,30,09,47,12.30
2009,10,30,09,48,12.40
2009,10,30,09,49,12.40
2009,10,30,09,50,12.50
2009,10,30,09,51,12.50
2009,10,30,09,52,12.70
2009,10,30,09,53,12.80
2009,10,30,09,54,12.90
2009,10,30,09,55,13.00
2009,10,30,09,56,13.10
2009,10,30,09,57,13.20
2009,10,30,09,58,13.20
2009,10,30,09,59,13.30
2009,10,30,10,00,13.30
2009,10,30,10,01,13.30
2009,10,30,10,02,13.40
2009,10,30,10,03,13.40
2009,10,30,10,04,13.40
2009,10,30,10,05,13.40
2009,10,30,10,06,13.50
2009,10,30,10,07,13.60
2009,10,30,10,08,13.60
2009,10,30,10,09,13.60
2009,10,30,10,10,13.70
2009,10,30,10,11,13.70
2009,10,30,10,12,13.70
2009,10,30,10,13,13.80
2009,10,30,10,14,13.80
2009,10,30,10,15,13.80
2009,10,30,10,16,13.80
2009,10,30,10,17,13.80
2009,10,30,10,18,13.80
2009,10,30,10,19,13.80
2009,10,30,10,20,13.80
2009,10,30,10,21,13.90
2009,10,30,10,22,14.00
2009,10,30,10,23,14.00
2009,10,30,10,24,14.10
2009,10,30,10,25,14.10
2009,10,30,10,26,14.10
2009,10,30,10,27,14.10
2009,10,30,10,28,14.10
2009,10,30,10,29,14.10
2009,10,30,10,30,14.10
2009,10,30,10,31,14.10
2009,10,30,10,32,14.10
2009,10,30,10,33,14.10
2009,10,30,10,34,14.10
2009,10,30,10,35,14.10
2009,10,30,10,36,14.10
2009,10,30,10,37,14.10
2009,10,30,10,38,14.10
2009,10,30,10,39,14.20
2009,10,30,10,40,14.20
2009,10,30,10,41,14.20
2009,10,30,10,42,14.20
2009,10,30,10,43,14.20
2009,10,30,10,44,14.30
2009,10,30,10,45,14.30
2009,10,30,10,46,14.30
2009,10,30,10,47,14.30
2009,10,30,10,48,14.30
2009,10,30,10,49,14.30
2009,10,30,10,50,14.30
2009,10,30,10,51,14.30
2009,10,30,10,52,14.30
2009,10,30,10,53,14.30
2009,10,30,10,54,14.30
2009,10,30,10,55,14.30
2009,10,30,10,56,14.40
2009,10,30,10,57,14.40
2009,10,30,10,58,14.40
2009,10,30,10,59,14.40
2009,10,30,11,00,14.40
2009,10,30,11,01,14.40
2009,10,30,11,02,14.40
2009,10,30,11,03,14.40
2009,10,30,11,04,14.40
2009,10,30,11,05,14.40
2009,10,30,11,06,14.40
2009,10,30,11,07,14.40
2009,10,30,11,08,14.40
2009,10,30,11,09,14.40
2009,10,30,11,10,14.40
2009,10,30,11,11,14.40
2009,10,30,11,12,14.40
2009,10,30,11,13,14.50
2009,10,30,11,14,14.50
2009,10,30,11,15,14.50
2009,10,30,11,16,14.50
2009,10,30,11,17,14.50
2009,10,30,11,18,14.50
2009,10,30,11,19,14.50
2009,10,30,11,20,14.40
2009,10,30,11,21,14.50
2009,10,30,11,22,14.40
2009,10,30,11,23,14.40
2009,10,30,11,24,14.40
2009,10,30,11,25,14.40
2009,10,30,11,26,14.40
2009,10,30,11,27,14.40
2009,10,30,11,28,14.40
2009,10,30,11,29,14.40
2009,10,30,11,30,14.50
2009,10,30,11,31,14.50
2009,10,30,11,32,14.50
2009,10,30,11,33,14.60
2009,10,30,11,34,14.60
2009,10,30,11,35,14.60
2009,10,30,11,36,14.60
2009,10,30,11,37,14.60
2009,10,30,11,38,14.60
2009,10,30,11,39,14.70
2009,10,30,11,40,14.70
2009,10,30,11,41,14.70
2009,10,30,11,42,14.70
2009,10,30,11,43,14.70
2009,10,30,11,44,14.70
2009,10,30,11,45,14.70
2009,10,30,11,46,14.70
2009,10,30,11,47,14.70
2009,10,30,11,48,14.70
2009,10,30,11,49,14.80
2009,10,30,11,50,14.80
2009,10,30,11,51,14.80
2009,10,30,11,52,14.90
2009,10,30,11,53,15.00
2009,10,30,11,54,15.00
2009,10,30,11,55,15.00
2009,10,30,11,56,15.00
2009,10,30,11,57,15.00
2009,10,30,11,58,15.00
2009,10,30,11,59,15.00
2009,10,30,12,00,15.00
2009,10,30,12,01,15.00
2009,10,30,12,02,15.00
2009,10,30,12,03,15.00
2009,10,30,12,04,15.00
2009,10,30,12,05,15.00
2009,10,30,12,06,15.00
2009,10,30,12,07,15.00
2009,10,30,12,08,15.00
2009,10,30,12,09,15.00
2009,10,30,12,10,15.00
2009,10,30,12,11,15.00
2009,10,30,12,12,15.00
2009,10,30,12,13,15.00
2009,10,30,12,14,15.00
2009,10,30,12,15,15.00
2009,10,30,12,16,15.00
2009,10,30,12,17,15.00
2009,10,30,12,18,15.00
2009,10,30,12,19,15.00
2009,10,30,12,20,15.00
2009,10,30,12,21,15.00
2009,10,30,12,22,15.00
2009,10,30,12,23,15.00
2009,10,30,12,24,15.00
2009,10,30,12,25,15.00
2009,10,30,12,26,15.10
2009,10,30,12,27,15.10
2009,10,30,12,28,15.10
2009,10,30,12,29,15.10
2009,10,30,12,30,15.10
2009,10,30,12,31,15.10
2009,10,30,12,32,15.10
2009,10,30,12,33,15.10
2009,10,30,12,34,15.10
2009,10,30,12,35,15.10
2009,10,30,12,36,15.10
2009,10,30,12,37,15.20
2009,10,30,12,38,15.20
2009,10,30,12,39,15.30
2009,10,30,12,40,15.30
2009,10,30,12,41,15.30
2009,10,30,12,42,15.40
2009,10,30,12,43,15.30
2009,10,30,12,44,15.30
2009,10,30,12,45,15.30
2009,10,30,12,46,15.30
2009,10,30,12,47,15.20
2009,10,30,12,48,15.10
2009,10,30,12,49,15.00
2009,10,30,12,50,15.00
2009,10,30,12,51,15.00
2009,10,30,12,52,15.00
2009,10,30,12,53,14.90
2009,10,30,12,54,14.80
2009,10,30,12,55,14.70
2009,10,30,12,56,14.60
2009,10,30,12,57,14.50
2009,10,30,12,58,14.40
2009,10,30,12,59,14.30
2009,10,30,13,00,14.20
2009,10,30,13,01,14.10
2009,10,30,13,02,14.00
2009,10,30,13,03,14.00
2009,10,30,13,04,13.90
2009,10,30,13,05,13.80
2009,10,30,13,06,13.80
2009,10,30,13,07,13.80
2009,10,30,13,08,13.70
2009,10,30,13,09,13.70
2009,10,30,13,10,13.70
2009,10,30,13,11,13.70
2009,10,30,13,12,13.60
2009,10,30,13,13,13.60
2009,10,30,13,14,13.60
2009,10,30,13,15,13.60
2009,10,30,13,16,13.60
2009,10,30,13,17,13.60
2009,10,30,13,18,13.70
2009,10,30,13,19,13.70
2009,10,30,13,20,13.70
2009,10,30,13,21,13.70
2009,10,30,13,22,13.70
2009,10,30,13,23,13.80
2009,10,30,13,24,13.80
2009,10,30,13,25,13.80
2009,10,30,13,26,13.80
2009,10,30,13,27,13.90
2009,10,30,13,28,13.90
2009,10,30,13,29,13.90
2009,10,30,13,30,13.90
2009,10,30,13,31,13.90
2009,10,30,13,32,13.90
2009,10,30,13,33,13.90
2009,10,30,13,34,14.00
2009,10,30,13,35,14.00
2009,10,30,13,36,14.10
2009,10,30,13,37,14.10
2009,10,30,13,38,14.10
2009,10,30,13,39,14.20
2009,10,30,13,40,14.20
2009,10,30,13,41,14.20
2009,10,30,13,42,14.20
2009,10,30,13,43,14.20
2009,10,30,13,44,14.20
2009,10,30,13,45,14.20
2009,10,30,13,46,14.30
2009,10,30,13,47,14.30
2009,10,30,13,48,14.30
2009,10,30,13,49,14.30
2009,10,30,13,50,14.30
2009,10,30,13,51,14.30
2009,10,30,13,52,14.40
2009,10,30,13,53,14.40
2009,10,30,13,54,14.40
2009,10,30,13,55,14.40
2009,10,30,13,56,14.40
2009,10,30,13,57,14.40
2009,10,30,13,58,14.40
2009,10,30,13,59,14.40
2009,10,30,14,00,14.40
2009,10,30,14,01,14.40
2009,10,30,14,02,14.40
2009,10,30,14,03,14.40
2009,10,30,14,04,14.40
2009,10,30,14,05,14.40
2009,10,30,14,06,14.40
2009,10,30,14,07,14.40
2009,10,30,14,08,14.30
2009,10,30,14,09,14.40
2009,10,30,14,10,14.40
2009,10,30,14,11,14.40
2009,10,30,14,12,14.40
2009,10,30,14,13,14.40
2009,10,30,14,14,14.40
2009,10,30,14,15,14.40
2009,10,30,14,16,14.40
2009,10,30,14,17,14.40
2009,10,30,14,18,14.40
2009,10,30,14,19,14.40
2009,10,30,14,20,14.50
2009,10,30,14,21,14.60
2009,10,30,14,22,14.60
2009,10,30,14,23,14.60
2009,10,30,14,24,14.60
2009,10,30,14,25,14.60
2009,10,30,14,26,14.60
2009,10,30,14,27,14.60
2009,10,30,14,28,14.70
2009,10,30,14,29,14.70
2009,10,30,14,30,14.70
2009,10,30,14,31,14.80
2009,10,30,14,32,14.90
2009,10,30,14,33,14.90
2009,10,30,14,34,14.90
2009,10,30,14,35,15.00
2009,10,30,14,36,15.00
2009,10,30,14,37,15.00
2009,10,30,14,38,15.00
2009,10,30,14,39,15.00
2009,10,30,14,40,15.00
2009,10,30,14,41,15.00
2009,10,30,14,42,15.00
2009,10,30,14,43,15.00
2009,10,30,14,44,15.00
2009,10,30,14,45,15.00
2009,10,30,14,46,15.00
2009,10,30,14,47,15.00
2009,10,30,14,48,15.00
2009,10,30,14,49,15.00
2009,10,30,14,50,15.00
2009,10,30,14,51,15.00
2009,10,30,14,52,15.00
2009,10,30,14,53,15.00
2009,10,30,14,54,15.00
2009,10,30,14,55,15.00
2009,10,30,14,56,15.00
2009,10,30,14,57,15.00
2009,10,30,14,58,15.10
2009,10,30,14,59,15.10
2009,10,30,15,00,15.20
2009,10,30,15,01,15.20
2009,10,30,15,02,15.20
2009,10,30,15,03,15.20
2009,10,30,15,04,15.20
2009,10,30,15,05,15.20
2009,10,30,15,06,15.20
2009,10,30,15,07,15.10
2009,10,30,15,08,15.20
2009,10,30,15,09,15.20
2009,10,30,15,10,15.30
2009,10,30,15,11,15.30
2009,10,30,15,12,15.30
2009,10,30,15,13,15.30
2009,10,30,15,14,15.30
2009,10,30,15,15,15.30
2009,10,30,15,16,15.30
2009,10,30,15,17,15.30
2009,10,30,15,18,15.40
2009,10,30,15,19,15.40
2009,10,30,15,20,15.50
2009,10,30,15,21,15.50
2009,10,30,15,22,15.60
2009,10,30,15,23,15.60
2009,10,30,15,24,15.60
2009,10,30,15,25,15.60
2009,10,30,15,26,15.60
2009,10,30,15,27,15.60
2009,10,30,15,28,15.70
2009,10,30,15,29,15.70
2009,10,30,15,30,15.70
2009,10,30,15,31,15.80
2009,10,30,15,32,15.80
2009,10,30,15,33,15.80
2009,10,30,15,34,15.90
2009,10,30,15,35,15.90
2009,10,30,15,36,16.00
2009,10,30,15,37,16.00
2009,10,30,15,38,16.00
2009,10,30,15,39,16.10
2009,10,30,15,40,16.10
2009,10,30,15,41,16.10
2009,10,30,15,42,16.10
2009,10,30,15,43,16.10
2009,10,30,15,44,16.10
2009,10,30,15,45,16.10
2009,10,30,15,46,16.10
2009,10,30,15,47,16.10
2009,10,30,15,48,16.10
2009,10,30,15,49,16.10
2009,10,30,15,50,16.10
2009,10,30,15,51,16.10
2009,10,30,15,52,16.10
2009,10,30,15,53,16.10
2009,10,30,15,54,16.10
2009,10,30,15,55,16.10
2009,10,30,15,56,16.10
2009,10,30,15,57,16.10
2009,10,30,15,58,16.00
2009,10,30,15,59,16.00
2009,10,30,16,00,16.00
2009,10,30,16,01,16.00
2009,10,30,16,02,16.00
2009,10,30,16,03,16.00
2009,10,30,16,04,16.10
2009,10,30,16,05,16.10
2009,10,30,16,06,16.10
2009,10,30,16,07,16.10
2009,10,30,16,08,16.10
2009,10,30,16,09,16.00
2009,10,30,16,10,16.00
2009,10,30,16,11,16.00
2009,10,30,16,12,16.00
2009,10,30,16,13,16.00
2009,10,30,16,14,16.00
2009,10,30,16,15,15.90
2009,10,30,16,16,15.90
2009,10,30,16,17,15.90
2009,10,30,16,18,15.90
2009,10,30,16,19,15.90
2009,10,30,16,20,15.90
2009,10,30,16,21,15.80
2009,10,30,16,22,15.80
2009,10,30,16,23,15.70
2009,10,30,16,24,15.70
2009,10,30,16,25,15.60
2009,10,30,16,26,15.50
2009,10,30,16,27,15.40
2009,10,30,16,28,15.30
2009,10,30,16,29,15.30
2009,10,30,16,30,15.20
2009,10,30,16,31,15.10
2009,10,30,16,32,15.00
2009,10,30,16,33,15.00
2009,10,30,16,34,15.00
2009,10,30,16,35,15.00
2009,10,30,16,36,15.00
2009,10,30,16,37,14.90
2009,10,30,16,38,14.80
2009,10,30,16,39,14.80
2009,10,30,16,40,14.80
2009,10,30,16,41,14.70
2009,10,30,16,42,14.70
2009,10,30,16,43,14.70
2009,10,30,16,44,14.60
2009,10,30,16,45,14.60
2009,10,30,16,46,14.60
2009,10,30,16,47,14.60
2009,10,30,16,48,14.50
2009,10,30,16,49,14.50
2009,10,30,16,50,14.50
2009,10,30,16,51,14.40
2009,10,30,16,52,14.40
2009,10,30,16,53,14.30
2009,10,30,16,54,14.30
2009,10,30,16,55,14.20
2009,10,30,16,56,14.20
2009,10,30,16,57,14.20
2009,10,30,16,58,14.20
2009,10,30,16,59,14.10
2009,10,30,17,00,14.10
2009,10,30,17,01,14.10
2009,10,30,17,02,14.10
2009,10,30,17,03,14.10
2009,10,30,17,04,14.10
2009,10,30,17,05,14.10
2009,10,30,17,06,14.10
2009,10,30,17,07,14.00
2009,10,30,17,08,14.00
2009,10,30,17,09,14.00
2009,10,30,17,10,13.90
2009,10,30,17,11,13.90
2009,10,30,17,12,13.90
2009,10,30,17,13,13.90
2009,10,30,17,14,13.90
2009,10,30,17,15,13.90
2009,10,30,17,16,13.90
2009,10,30,17,17,13.90
2009,10,30,17,18,13.80
2009,10,30,17,19,13.80
2009,10,30,17,20,13.80
2009,10,30,17,21,13.80
2009,10,30,17,22,13.80
2009,10,30,17,23,13.80
2009,10,30,17,24,13.70
2009,10,30,17,25,13.80
2009,10,30,17,26,13.70
2009,10,30,17,27,13.70
2009,10,30,17,28,13.70
2009,10,30,17,29,13.70
2009,10,30,17,30,13.70
2009,10,30,17,31,13.70
2009,10,30,17,32,13.70